Zurück zum Katalog

STARLINK-4092

AktivKommunikationVLEO
NORAD 52838·PAYLOAD·🇺🇸 United States

Gestartet Jun 17, 2022 von Cape Canaveral Space Force Station

Loading…

Nächste Überflüge (nächste 24 Stunden)

TLE

AktuellSource: CelesTrak SupGP

Epoche: Sep 15, 2026, 02:37 UTC

1 52838C 22062J   26258.10951389 -.00034154  00000+0 -10983-2 0  2586
2 52838  53.1586 253.9280 0001376  89.6787 212.1099 15.31719761    13

Verfolge STARLINK-4092 in Echtzeit mit AllMySat

Download on the App Store